Location: Arnolds Mill
(42.3415°N, 73.5951°W)
Time: 00:48:55
(UTC+00:00)

BlueWalker 3 - Visible Passes

Search period start: 21 June 2024 00:00
Search period end: 01 July 2024 00:00
Orbit: 480 x 494 km, 53.2° (Epoch: 20 June)

Date Brightness Start Highest point End Pass type
(mag) Time Alt. Az. Time Alt. Az. Time Alt. Az.
21 Jun 2.2 01:38:27 10° WSW 01:42:12 71° NW 01:45:56 10° NE visible
21 Jun 4.7 03:18:02 10° WNW 03:20:53 20° NNW 03:23:44 10° NNE visible
21 Jun 5.0 04:57:46 10° NW 05:00:08 16° N 05:02:30 10° NE visible
21 Jun 3.7 06:35:47 10° NW 06:39:11 32° NNE 06:42:34 10° E visible
21 Jun 2.1 08:13:52 10° WNW 08:17:26 43° SW 08:20:59 10° SSE visible
22 Jun 2.1 01:12:44 10° WSW 01:16:30 76° NW 01:20:15 10° NE visible
22 Jun 4.6 02:52:15 10° WNW 02:55:09 21° NNW 02:58:02 10° NNE visible
22 Jun 5.0 04:32:02 10° NW 04:34:23 16° N 04:36:45 10° NE visible
22 Jun 3.8 06:10:06 10° NW 06:13:28 31° NNE 06:16:49 10° E visible
22 Jun 2.0 07:48:08 10° WNW 07:51:44 47° SW 07:55:19 10° SSE visible
23 Jun 4.6 02:26:28 10° WNW 02:29:24 21° NNW 02:32:21 10° NE visible
23 Jun 5.0 04:06:19 10° NW 04:08:39 16° N 04:10:58 10° NE visible
23 Jun 3.8 05:44:25 10° NW 05:47:44 29° NNE 05:51:03 10° E visible
23 Jun 1.9 07:22:24 10° WNW 07:26:02 50° SW 07:29:40 10° SSE visible
24 Jun 4.6 02:00:40 10° WNW 02:03:39 22° NNW 02:06:38 10° NE visible
24 Jun 4.9 03:40:34 10° NW 03:42:53 15° N 03:45:12 10° NE visible
24 Jun 3.9 05:18:42 10° NW 05:22:00 28° NNE 05:25:16 10° E visible
24 Jun 1.8 06:56:40 10° WNW 07:00:20 55° SW 07:00:38 53° SSW visible
25 Jun 4.5 01:34:52 10° WNW 01:37:54 23° NNW 01:40:56 10° NE visible
25 Jun 4.9 03:14:48 10° NW 03:17:07 15° N 03:19:26 10° NE visible
25 Jun 3.9 04:53:00 10° NW 04:56:15 27° NNE 04:59:03 12° E visible
25 Jun 2.8 06:30:56 10° WNW 06:33:16 34° WNW 06:33:16 34° WNW visible
26 Jun 4.5 01:09:04 10° WNW 01:12:08 23° NNW 01:15:13 10° NE visible
26 Jun 4.8 02:49:02 10° NW 02:51:21 15° N 02:53:38 10° NE visible
26 Jun 3.9 04:27:16 10° NW 04:30:29 26° NNE 04:32:46 15° ENE visible
26 Jun 3.4 06:05:11 10° WNW 06:07:02 27° WNW 06:07:02 27° WNW visible
27 Jun 4.8 02:23:15 10° NW 02:25:33 15° N 02:27:51 10° NE visible
27 Jun 4.0 04:01:33 10° NW 04:04:43 25° NNE 04:06:56 15° ENE visible
27 Jun 3.5 05:39:26 10° WNW 05:41:13 26° WNW 05:41:13 26° WNW visible
28 Jun 4.7 01:57:27 10° NW 01:59:46 15° N 02:02:04 10° NE visible
28 Jun 4.0 03:35:49 10° NW 03:38:56 24° NNE 03:41:20 14° ENE visible
28 Jun 3.4 05:13:41 10° NW 05:15:37 29° WNW 05:15:37 29° WNW visible
29 Jun 4.7 01:31:39 10° NW 01:33:58 15° N 01:36:16 10° NE visible
29 Jun 4.0 03:10:04 10° NW 03:13:09 23° NNE 03:15:52 12° ENE visible
29 Jun 3.2 04:47:55 10° NW 04:50:10 34° WNW 04:50:10 34° WNW visible
30 Jun 4.6 01:05:50 10° NW 01:08:09 15° N 01:10:28 10° NE visible
30 Jun 4.0 02:44:19 10° NW 02:47:21 23° NNE 02:50:23 10° ENE visible
30 Jun 2.8 04:22:09 10° NW 04:24:49 44° NW 04:24:49 44° NW visible
